{"data":{"norad_id":67569,"epoch":"2026-09-18T14:22:05.992608Z","epoch_age_seconds":236561,"freshness":"STALE","line1":"1 67569U 26016J   26261.59868047  .00020628  00000+0  63958-3 0  9993","line2":"2 67569  97.2849 321.2705 0000781 103.6490 256.4840 15.33443238 36490","mean_motion":15.33443238,"eccentricity":7.81e-5,"inclination_deg":97.2849,"raan_deg":321.2705,"arg_perigee_deg":103.649,"mean_anomaly_deg":256.484,"bstar":0.00063958,"rev_number":3649,"period_min":93.906312559578,"perigee_km":465.01392512441,"apogee_km":466.08290878654,"semimajor_km":6843.6854169555,"source":"CELESTRAK","updated_at":"2026-09-20T09:00:43.575457Z"}}